Theta_e
350 350 350 350 350 350 349 350 350 351 352 352 352 352 352 352 353 355 356 355 355 355 355 356 356 356 355 355 356 356 356 356 356 355 355 355 356 357 357 357 357 358 358 358 357 358 358 358 357 357 355 354 354 353 353 353 354 354 353 352 351 350 351 353 355 355 354 353 353 353 354 354 354 352 351 351 351 350 351 351 352 354 354 352 350
350 350 351 351 350 350 350 350 349 350 351 352 353 353 352 353 353 355 357 356 356 354 355 356 355 355 354 354 355 356 356 357 355 355 355 355 355 355 357 358 358 359 359 358 357 357 357 356 356 356 355 354 353 353 353 353 353 354 353 352 352 351 351 352 355 356 355 354 354 354 354 355 354 353 352 352 352 352 352 352 353 353 353 352 350
350 350 351 351 351 351 351 351 350 350 351 351 353 353 352 353 353 355 356 356 355 354 355 356 355 353 352 352 353 353 353 354 354 354 354 354 354 355 356 358 358 358 358 358 357 356 355 355 355 355 354 354 354 353 353 353 352 354 354 354 353 353 352 352 353 355 354 353 354 354 354 355 354 353 353 353 353 353 353 354 354 355 354 353 350
351 351 351 350 351 352 352 352 352 351 351 351 352 353 353 353 353 354 354 354 354 354 355 355 354 353 352 351 351 351 352 353 353 354 354 353 354 354 356 357 357 358 357 358 357 355 354 355 355 355 354 353 354 353 353 353 353 355 356 356 355 355 355 355 354 354 353 353 354 355 355 356 355 354 354 354 353 352 353 353 354 355 355 352 350
351 352 351 351 352 352 352 353 352 352 352 352 352 353 353 352 352 353 353 353 354 354 354 354 353 353 352 351 350 350 351 351 351 352 353 353 353 353 355 357 357 356 357 358 357 355 355 355 354 353 353 353 353 354 354 354 354 356 357 357 357 357 357 356 356 355 355 354 354 356 357 357 355 355 355 355 354 352 351 352 352 354 354 352 351
352 352 353 353 353 353 353 353 353 353 353 353 353 353 353 353 353 353 353 353 354 354 354 354 354 353 352 351 351 350 350 351 351 352 352 351 352 353 355 357 357 356 356 356 356 355 354 354 353 352 353 354 354 355 356 355 355 356 358 358 358 357 356 356 356 357 357 357 356 357 357 357 357 356 356 356 356 354 353 353 352 353 355 354 353
352 353 353 354 353 353 354 353 353 353 353 353 354 353 353 354 353 353 353 354 354 354 354 354 353 353 352 351 350 350 349 350 351 352 352 351 351 352 354 355 355 355 355 355 354 354 353 353 353 354 354 355 355 355 356 356 356 357 358 357 355 354 353 353 354 355 356 356 356 356 356 356 357 356 356 356 355 355 355 355 354 354 355 356 354
352 353 354 354 354 354 354 354 354 354 354 354 354 354 354 353 353 353 353 353 354 354 354 354 353 353 353 352 351 350 349 351 352 352 351 350 350 352 353 354 355 354 354 354 353 353 354 354 354 354 355 356 356 356 356 357 357 356 355 353 352 351 351 351 352 353 354 354 354 355 355 355 355 354 354 354 354 354 354 354 355 354 354 354 353
353 353 354 355 354 354 354 355 355 355 355 355 354 354 354 354 353 353 353 353 353 353 353 354 354 353 353 353 352 351 350 351 352 352 351 350 351 353 353 354 355 354 354 355 355 356 356 356 356 357 358 359 358 357 357 356 355 353 352 351 350 349 348 348 350 351 351 352 353 353 354 354 354 354 353 353 354 353 353 352 352 353 352 352 352
354 353 354 354 354 355 355 355 356 355 355 355 354 354 354 354 354 353 353 353 353 353 353 353 353 353 353 353 352 352 352 352 353 352 350 351 353 354 354 356 356 355 354 356 357 358 357 357 358 359 360 360 358 356 355 353 352 351 350 348 346 345 345 345 346 347 348 349 351 351 353 353 352 351 351 351 350 350 350 349 350 351 351 351 351
354 353 354 354 354 355 355 355 356 355 355 355 354 354 354 355 355 354 353 353 353 354 353 352 353 353 352 353 351 351 351 351 353 352 350 352 354 354 355 356 357 356 355 356 357 357 357 357 358 358 358 356 354 353 352 351 350 349 347 344 341 341 342 342 344 345 345 346 347 347 347 346 345 344 345 345 345 345 346 346 347 349 350 351 350
354 354 354 354 354 355 355 355 356 355 355 355 354 354 354 355 355 354 354 354 353 353 352 352 353 352 352 352 351 350 351 351 352 352 351 353 354 355 356 358 358 357 357 356 356 357 357 357 357 355 354 353 352 352 350 347 345 343 340 337 337 340 342 342 342 342 341 341 341 341 341 340 339 340 340 340 341 342 343 344 345 346 347 348 350
354 354 354 354 354 354 354 355 355 354 355 355 354 354 354 355 355 354 354 354 353 352 351 352 352 352 351 351 350 351 352 352 352 352 353 355 357 358 359 359 358 356 355 355 354 355 355 355 355 353 352 352 351 348 343 339 337 335 332 332 336 340 341 341 340 338 338 338 338 337 337 337 337 338 338 339 340 340 341 342 343 343 344 345 347
352 354 354 354 354 354 354 354 354 354 354 354 354 354 354 354 354 354 354 353 352 351 351 351 351 351 351 351 351 352 352 352 352 353 354 356 357 358 359 358 355 353 352 352 353 354 354 353 353 353 351 348 342 337 334 332 330 329 329 332 336 337 337 337 337 336 336 337 337 337 337 337 337 337 338 339 340 340 341 342 342 342 343 343 344
350 351 353 354 354 354 353 353 353 353 354 353 354 353 353 354 354 354 353 352 351 351 350 350 350 350 350 350 350 350 350 350 351 352 353 354 355 356 354 352 350 348 347 350 351 351 351 351 351 348 342 335 330 327 326 325 325 328 331 334 335 335 335 336 336 337 338 338 339 339 338 338 338 339 339 339 339 340 341 342 342 342 343 343 344
350 350 351 353 354 354 354 353 353 353 353 353 354 355 356 356 355 354 352 350 350 350 349 348 348 348 348 347 346 345 345 346 347 349 350 351 351 351 350 350 349 348 348 350 351 350 347 344 340 335 327 324 323 323 324 326 329 333 335 336 336 336 336 337 338 339 339 339 339 339 338 339 339 340 341 341 341 341 342 343 343 342 342 343 343
350 349 349 351 353 353 353 353 353 353 354 355 357 358 358 357 356 354 352 350 349 349 348 346 344 344 343 341 340 339 338 340 344 346 347 347 348 349 350 351 350 350 348 346 344 343 338 332 327 322 321 322 324 326 329 332 334 336 336 337 337 337 337 337 338 339 339 338 337 336 336 336 336 337 339 339 340 340 340 341 340 340 341 342 341
349 349 349 351 352 352 350 351 353 354 356 357 358 358 357 356 356 355 353 351 349 347 345 341 339 338 336 334 334 335 334 334 339 344 347 346 347 349 351 352 351 348 343 336 332 330 327 323 321 321 324 327 330 333 334 334 334 334 335 336 337 337 336 336 336 336 336 336 335 335 334 333 333 334 334 334 334 334 334 334 335 336 337 338 339
349 349 350 350 352 351 350 350 352 352 354 355 354 354 353 353 355 354 351 349 345 341 339 337 333 331 329 329 330 332 331 330 330 336 341 343 343 346 347 348 347 341 334 329 326 327 326 324 324 327 330 333 335 335 335 333 333 333 333 334 336 337 336 336 334 333 332 331 332 332 332 332 331 331 331 332 332 332 331 331 330 331 332 333 334
349 348 348 348 349 350 350 351 352 351 350 349 348 348 348 350 351 349 345 343 340 337 335 333 329 327 326 328 329 328 328 325 324 328 333 336 338 339 339 338 335 331 327 323 321 323 326 325 327 332 335 335 336 336 335 335 334 332 332 333 335 336 335 334 332 330 327 326 325 326 327 328 329 330 330 331 332 332 332 331 329 328 328 328 328
348 347 348 347 346 346 347 349 351 350 347 347 347 346 346 348 348 345 341 338 336 333 331 329 327 325 325 327 327 326 324 325 325 326 328 331 334 335 333 331 329 328 325 321 317 320 325 327 328 332 334 334 334 334 334 335 334 332 331 332 333 334 332 331 329 326 324 322 321 321 322 323 324 324 325 326 328 328 330 331 330 329 327 326 325
347 347 347 347 346 346 346 348 349 348 346 348 347 344 344 345 344 341 337 334 331 329 327 326 325 323 323 323 324 323 322 322 322 323 323 325 329 332 330 327 326 326 326 321 317 319 325 328 329 330 331 331 332 332 333 334 334 332 330 331 331 330 328 326 325 323 321 320 319 319 319 319 320 320 320 321 323 323 325 327 330 330 329 326 325
346 346 346 346 347 347 347 347 347 346 347 349 347 342 340 340 339 336 333 330 328 325 324 324 323 322 321 321 322 321 319 318 318 318 318 318 321 324 325 324 323 324 324 322 320 320 324 329 331 331 331 332 332 333 333 333 331 329 328 329 329 327 325 324 322 320 318 317 316 316 316 316 317 318 318 319 320 321 321 323 326 330 330 328 327
345 344 344 344 345 344 344 343 343 343 344 345 343 339 337 335 333 331 329 327 324 322 322 321 321 319 318 317 317 318 318 317 316 315 316 315 315 318 320 320 319 318 317 318 319 318 319 326 332 333 333 334 335 333 331 330 327 327 327 326 325 324 323 322 321 320 318 315 313 312 312 312 314 315 316 316 317 318 319 320 322 326 327 325 323
341 340 340 340 340 339 339 338 338 338 338 338 337 335 332 331 329 328 327 325 323 323 322 321 320 318 316 314 313 313 313 313 312 312 312 313 312 313 314 315 317 318 317 318 319 315 314 322 330 332 333 334 334 331 328 326 325 325 325 324 323 322 321 321 320 318 316 313 311 311 310 310 311 312 312 313 313 314 316 317 318 320 321 321 319
338 337 336 337 336 336 336 335 334 334 333 332 332 330 329 329 328 328 328 326 326 326 325 323 319 317 316 316 315 315 313 312 312 312 313 312 311 311 311 312 316 320 319 317 318 316 315 320 327 330 332 332 331 329 326 324 324 323 322 321 321 320 320 319 317 315 313 311 311 311 310 310 310 310 311 310 310 311 312 312 312 313 313 314 315
335 334 334 334 334 334 334 333 332 331 330 330 329 328 328 328 328 328 328 328 328 328 325 321 318 317 318 318 319 319 318 318 319 319 320 319 319 318 318 318 320 323 323 322 322 321 317 319 324 328 331 330 328 326 324 322 322 321 320 320 320 319 318 316 314 312 312 311 311 311 311 311 311 311 311 310 310 310 310 310 310 310 309 309 310
330 330 330 331 331 331 331 331 330 329 328 328 328 327 328 328 328 329 329 328 328 327 322 319 318 319 319 318 317 317 317 317 319 321 322 323 323 324 325 325 326 327 328 329 329 326 322 322 325 327 327 326 324 323 322 321 321 320 319 318 317 316 315 313 312 312 311 312 311 311 311 311 311 311 311 310 310 310 310 310 310 309 309 309 309
328 328 328 329 329 329 330 329 329 328 327 327 327 327 329 329 329 330 330 329 326 322 319 317 318 317 315 314 313 313 313 315 318 321 323 324 325 325 326 327 328 329 331 332 332 330 328 327 327 326 324 323 322 322 321 321 320 318 316 315 314 313 313 312 312 312 312 312 312 311 311 311 311 311 311 310 310 310 310 309 310 310 310 310 310
327 327 328 328 328 329 329 329 328 327 326 327 327 326 328 329 330 331 330 327 322 317 314 314 314 313 312 313 313 313 315 318 321 324 324 324 325 326 326 327 329 331 332 333 333 331 328 327 325 324 324 323 321 320 320 319 317 315 314 313 313 313 312 312 312 312 312 312 311 311 311 311 310 310 310 310 309 309 309 309 309 310 310 310 310
325 325 326 326 327 328 328 327 326 325 324 323 322 322 322 324 326 327 325 320 316 313 313 313 313 313 313 314 315 316 318 321 323 324 325 325 325 325 325 326 328 329 330 331 331 328 327 325 325 324 323 322 320 319 317 316 315 314 314 313 313 312 312 312 312 312 312 312 312 311 311 310 310 310 309 309 309 309 309 309 309 309 309 309 309
324 324 324 324 325 326 325 324 324 322 320 318 317 316 316 317 317 317 316 314 313 314 315 315 316 317 317 317 318 318 320 321 322 323 324 325 325 324 324 325 325 326 327 328 327 326 326 325 324 323 321 320 318 317 316 315 314 314 313 313 313 313 312 312 312 312 312 312 311 311 310 310 309 309 308 308 308 308 308 308 308 308 308 308 308
324 323 323 323 322 322 323 323 322 320 317 315 314 314 314 315 315 315 315 315 316 317 317 318 319 319 319 320 320 320 320 321 321 322 323 324 324 324 324 324 324 324 324 324 324 324 324 323 322 321 319 317 316 316 315 315 315 314 314 314 313 313 312 311 311 311 310 310 310 309 309 309 308 308 308 307 307 307 307 307 307 307 308 308 308
322 321 320 320 319 319 319 320 319 317 316 315 315 315 315 315 316 316 316 317 318 318 318 319 319 318 319 319 320 320 321 321 321 321 322 322 323 323 323 323 323 322 322 322 322 322 321 321 320 319 317 316 316 316 316 315 315 315 314 313 312 311 310 310 309 309 309 309 308 308 307 307 307 306 306 306 306 306 306 306 306 307 308 308 307
320 319 317 316 316 316 316 316 316 316 316 316 316 316 316 317 317 317 318 318 318 319 319 319 318 317 316 317 318 319 319 320 320 320 321 321 321 321 322 322 322 322 322 322 322 321 320 320 319 318 317 316 316 316 316 316 315 314 313 311 310 309 309 308 308 307 307 307 306 305 305 305 304 304 304 305 305 305 305 305 305 305 306 307 307
321 320 318 317 316 316 315 316 317 317 317 317 317 317 318 318 318 319 320 319 319 319 319 319 317 316 316 316 317 318 318 318 318 318 319 321 321 320 321 321 320 320 320 320 320 319 318 317 317 316 315 316 315 315 315 315 313 312 311 309 309 308 307 307 306 305 305 305 304 303 303 302 301 301 302 304 304 304 304 304 304 304 305 306 306
326 326 324 322 321 320 319 319 320 319 318 318 318 318 319 319 319 320 320 319 319 319 319 318 317 317 317 317 317 317 317 318 318 318 319 320 320 320 320 319 318 317 317 316 316 316 315 314 314 314 314 313 313 313 312 312 311 310 309 308 307 306 305 304 304 303 303 303 303 302 302 301 299 300 302 303 303 303 303 303 304 304 304 304 305
325 327 328 328 327 327 326 325 324 323 321 320 320 319 319 320 321 320 319 318 318 319 318 318 318 317 317 317 317 317 317 317 318 318 318 319 319 319 318 317 317 316 315 314 313 313 312 311 311 311 311 310 310 309 309 308 308 307 306 305 305 304 303 303 303 303 302 302 301 300 300 298 298 300 302 303 302 302 303 303 303 303 303 303 304
321 322 324 324 324 324 324 325 325 325 324 324 323 323 322 322 321 319 318 317 318 318 318 318 318 317 317 317 317 317 317 316 316 316 316 316 316 316 316 315 314 313 312 312 311 311 310 310 310 309 309 308 308 307 306 306 305 305 305 304 304 303 302 302 301 301 300 299 298 298 297 297 298 300 302 302 302 302 302 302 302 303 303 303 303
318 318 319 319 319 318 318 320 321 321 323 324 325 325 323 321 320 318 317 317 317 318 318 318 317 317 317 316 316 317 316 315 314 313 313 313 313 313 313 313 312 311 311 311 311 310 310 309 309 308 307 307 306 305 305 304 304 303 303 303 302 301 300 299 299 298 298 297 297 297 297 298 299 301 301 301 301 301 301 301 302 302 302 302 303
317 317 317 317 316 317 317 317 318 319 321 323 324 324 321 319 318 317 317 317 317 317 317 316 316 316 316 316 316 316 315 313 312 312 312 311 310 310 310 310 310 310 310 309 309 309 309 308 307 306 306 305 304 304 303 303 302 301 301 300 300 299 298 297 297 296 296 296 296 297 297 299 300 300 301 301 301 301 301 301 301 301 301 302 302
317 317 317 316 316 316 316 316 318 319 321 322 322 321 319 318 317 317 317 316 316 316 315 314 314 314 314 314 315 315 314 312 311 311 310 310 309 309 309 308 308 308 308 308 308 307 307 306 305 305 304 303 303 302 302 301 300 300 299 298 298 297 296 296 295 295 296 296 297 297 298 299 300 300 300 300 300 300 300 301 301 301 301 301 301
317 317 316 316 316 316 316 316 316 318 320 321 320 318 317 317 317 316 316 315 315 314 314 313 313 313 313 313 313 313 312 310 310 309 308 308 308 308 307 307 307 307 306 306 306 306 306 305 304 303 302 302 301 301 301 300 299 299 298 297 297 296 295 295 295 295 295 296 297 298 298 299 300 300 300 300 300 300 300 300 300 301 301 301 301
317 316 316 316 315 315 315 316 316 317 319 319 318 317 317 316 316 316 315 314 314 314 313 312 312 312 312 312 312 312 311 309 308 308 307 307 306 306 305 305 305 305 304 304 304 304 304 303 302 302 301 300 300 300 299 298 298 297 296 296 295 295 295 295 295 295 295 296 297 298 299 299 300 300 300 300 300 300 300 300 300 301 301 301 301
316 316 315 315 315 315 315 315 316 317 317 317 317 316 316 316 315 315 314 314 313 313 312 311 311 310 310 309 309 309 309 308 307 307 307 306 305 305 304 304 304 304 303 303 302 302 302 302 301 301 300 299 299 298 298 297 296 296 295 295 295 295 295 295 295 295 294 295 297 298 299 299 299 299 299 300 300 300 300 300 300 301 301 301 301
316 315 315 315 315 314 314 314 315 316 317 316 316 315 315 315 315 314 313 313 312 311 310 310 309 308 308 307 307 307 307 307 307 306 306 305 305 304 304 303 302 302 302 302 302 301 301 301 301 300 300 299 298 297 297 296 295 295 295 295 295 295 295 295 295 295 294 295 296 298 299 299 299 299 299 299 299 299 300 300 300 300 301 301 301
314 315 315 315 314 314 313 314 314 314 315 315 315 314 314 314 313 312 312 311 310 310 309 308 307 307 307 306 306 305 305 305 305 304 304 304 303 303 302 301 300 300 300 300 300 300 300 300 300 299 299 298 297 297 296 296 295 295 295 295 295 295 295 295 295 295 294 295 296 298 298 299 298 298 298 298 299 299 299 300 300 300 300 300 301
314 314 315 315 314 313 313 313 313 313 313 313 313 313 312 312 311 311 310 310 309 309 308 308 307 307 306 306 305 305 304 304 303 303 302 302 302 301 301 300 300 300 300 299 299 299 299 299 299 299 298 298 297 297 296 295 295 295 295 295 295 295 294 294 295 295 294 295 296 297 298 298 298 298 298 298 298 298 299 299 299 299 299 299 300
314 314 313 313 313 313 313 313 312 313 312 312 312 312 311 311 310 310 310 309 309 308 308 308 307 307 306 306 305 305 304 304 303 302 302 301 301 301 301 300 300 300 300 299 298 298 298 298 298 299 298 297 297 297 296 295 295 295 295 295 295 295 294 294 295 295 294 295 296 297 298 298 298 298 298 298 298 298 299 299 299 299 299 299 299
313 313 313 313 312 312 312 312 312 312 312 311 311 311 310 310 310 310 309 309 309 308 308 308 307 307 306 306 305 305 304 304 303 303 302 301 301 301 301 300 299 299 299 298 298 297 297 298 299 299 298 297 297 297 296 295 295 296 296 295 295 295 295 295 295 295 295 295 296 297 298 298 298 297 298 298 298 298 298 298 299 299 299 299 299
313 313 313 313 312 312 312 312 311 311 311 311 311 310 310 310 310 309 309 309 308 308 308 307 307 306 306 306 305 305 305 304 304 303 303 302 302 301 301 300 299 298 298 298 298 298 298 298 299 298 298 297 297 297 296 296 295 296 296 296 296 296 295 295 295 296 296 295 296 297 297 297 297 297 298 298 298 298 298 298 298 298 299 299 299
Wind_Speed
35 35 35 34 32 31 31 32 31 29 25 23 24 24 23 22 22 21 20 19 19 18 18 18 17 17 16 16 16 16 17 17 16 16 16 17 17 15 14 13 13 13 11 11 11 11 11 10 9 10 10 11 10 9 9 8 7 8 8 9 10 9 9 8 6 9 16 17 16 16 17 18 18 18 19 19 18 17 15 12 11 10 10 11 10
35 35 34 34 33 32 31 31 32 30 28 25 25 25 24 23 23 22 21 20 18 18 17 17 16 15 15 16 16 17 18 19 18 17 17 18 18 18 17 16 15 14 13 13 13 12 12 12 11 10 10 9 8 8 8 7 7 8 8 8 10 9 9 9 8 8 13 17 17 16 17 18 19 19 19 19 19 19 17 14 13 12 11 11 11
36 36 34 34 34 33 32 31 31 31 30 28 27 26 26 25 24 23 23 21 19 18 18 18 18 18 19 19 19 19 20 21 20 19 18 18 18 17 18 19 17 16 16 15 14 13 12 12 10 9 8 8 7 7 7 6 6 7 8 8 9 10 9 10 10 9 11 16 17 17 18 19 20 20 20 19 19 19 18 17 15 14 13 13 12
36 35 35 34 34 33 32 32 31 31 30 30 29 28 27 26 25 24 24 22 20 20 21 21 20 19 20 20 20 20 21 21 20 19 19 19 19 17 17 20 19 17 17 15 14 12 11 10 9 7 7 7 6 5 5 5 5 6 7 7 8 9 10 10 10 10 11 14 16 18 19 20 21 21 20 20 20 19 19 19 18 17 16 14 14
35 34 34 34 33 33 33 32 31 31 31 30 30 28 27 26 25 24 24 23 22 22 23 22 21 20 21 21 21 21 21 20 20 20 20 19 20 18 17 19 18 17 17 15 13 11 10 9 8 7 7 6 5 4 4 4 5 5 5 6 7 9 10 10 11 11 12 14 16 18 19 20 21 21 20 21 22 22 21 19 18 18 17 15 15
34 34 34 33 32 32 32 32 31 31 31 30 29 28 27 27 26 26 24 23 24 24 24 24 23 22 21 21 20 21 21 20 20 20 19 19 19 19 18 18 17 16 15 15 14 12 10 9 7 6 5 5 5 5 5 5 6 6 6 7 8 10 11 11 11 12 13 14 16 18 19 20 20 22 21 20 21 21 21 21 20 18 17 17 17
34 34 34 33 32 32 32 32 32 31 30 30 29 28 28 27 27 26 25 24 25 25 25 24 23 21 21 20 20 21 21 21 20 19 19 19 19 18 18 17 16 15 14 14 13 12 10 9 7 5 4 5 6 6 6 6 7 7 7 8 9 10 11 11 12 12 13 14 15 17 18 18 18 20 20 19 19 18 18 19 21 21 20 19 19
34 34 34 33 33 33 33 32 31 30 29 29 29 28 29 29 29 27 25 24 25 25 25 24 23 22 21 20 19 20 20 20 20 20 19 19 18 18 18 17 16 14 13 13 12 11 10 9 8 7 7 7 7 6 6 6 7 6 6 8 9 10 11 11 12 12 13 14 14 15 16 17 17 17 19 19 18 18 17 17 19 21 21 21 22
33 34 34 34 35 34 33 32 31 30 29 28 29 29 29 30 29 29 28 26 25 25 25 25 24 22 20 19 19 20 20 20 20 20 19 18 18 18 18 17 16 14 12 11 10 9 8 8 7 6 4 4 4 4 4 4 4 5 6 8 9 10 10 11 12 12 13 14 14 15 15 15 15 16 17 16 15 16 17 17 18 19 21 24 24
33 33 33 34 35 34 33 32 31 30 30 30 30 30 30 30 30 29 29 28 26 25 25 25 25 24 22 20 19 20 21 21 20 20 20 19 18 18 18 18 17 15 14 12 10 8 8 8 6 5 5 4 3 2 1 2 4 6 7 8 9 9 10 10 10 11 12 12 13 14 14 13 13 14 15 15 15 16 17 18 19 20 21 22 23
33 33 34 35 34 33 32 32 31 32 32 32 32 32 31 31 30 29 29 29 28 27 26 26 25 24 22 20 20 21 21 21 20 20 20 19 19 20 19 19 19 18 16 14 12 11 10 10 9 7 6 4 2 1 3 4 6 7 7 8 8 9 9 8 9 9 9 10 11 12 13 13 15 17 17 19 19 19 19 19 20 20 19 16 16
34 34 34 34 33 32 32 32 32 33 33 33 33 32 32 32 31 30 29 28 28 27 26 26 25 23 22 21 20 20 21 21 20 20 19 19 20 20 20 20 21 21 20 17 14 14 14 13 10 8 6 3 0 2 4 5 6 6 6 5 5 6 7 8 9 9 10 10 11 12 13 14 16 17 18 19 20 20 20 20 19 19 19 17 15
34 35 35 34 33 32 32 33 33 34 34 34 33 32 32 31 30 29 27 26 26 26 25 26 25 23 22 21 21 20 20 20 20 19 19 19 19 20 21 22 21 20 18 16 15 16 16 13 10 7 4 1 1 3 4 5 4 4 4 4 4 6 7 7 8 10 10 11 12 12 12 12 14 16 16 16 17 18 18 18 18 18 19 19 19
29 32 34 34 33 33 34 34 34 34 34 34 34 33 32 31 30 28 26 24 24 24 24 24 22 21 20 20 20 19 19 20 20 20 20 19 19 20 20 20 19 17 14 12 14 15 14 11 9 5 3 0 2 3 3 4 4 4 5 6 8 8 9 9 10 10 11 11 11 12 11 12 13 14 15 13 13 15 15 16 17 17 18 19 20
29 31 32 34 33 33 34 34 34 34 34 34 34 32 31 29 26 23 20 20 20 19 18 17 16 15 15 16 17 17 16 17 18 18 19 19 18 18 18 17 17 15 12 11 11 10 9 8 6 4 2 2 2 3 4 5 6 8 10 12 12 12 13 13 13 12 11 11 12 12 12 13 13 14 13 13 12 12 12 14 15 15 16 17 16
30 28 27 31 33 34 35 35 34 33 33 33 32 28 25 21 18 17 16 16 16 15 13 11 10 10 11 12 12 12 12 13 14 15 16 16 16 16 16 14 12 13 14 13 12 11 9 7 5 4 4 4 5 6 7 9 12 15 16 16 15 15 15 14 13 13 13 13 14 15 16 17 17 17 16 13 11 11 10 13 15 16 16 15 14
30 29 28 29 30 30 31 33 35 34 32 30 26 22 20 19 18 18 16 14 14 13 12 10 9 9 10 10 9 7 5 7 11 13 12 13 14 15 15 14 13 13 14 14 13 12 10 7 6 6 6 8 10 12 13 15 17 19 19 19 18 18 17 16 16 16 17 17 17 18 20 21 22 23 23 22 18 15 15 16 18 18 17 14 13
27 29 30 30 27 22 17 17 22 28 29 26 23 20 20 20 19 18 17 16 15 15 14 14 13 11 10 10 8 6 3 1 6 11 12 12 12 13 15 16 16 15 15 15 14 13 12 10 9 10 13 15 17 18 18 18 19 19 19 19 19 19 19 19 19 19 19 19 19 21 22 23 24 26 26 27 26 26 25 23 22 22 19 16 15
27 27 28 28 28 24 17 12 12 13 14 18 22 23 22 20 18 17 18 18 19 18 17 17 16 14 13 12 8 6 5 3 0 5 10 11 11 11 13 16 18 18 19 19 17 15 15 15 16 17 18 20 20 19 18 18 19 19 19 19 19 18 17 18 19 21 21 21 22 23 24 24 25 26 26 27 27 27 27 25 25 25 22 18 18
26 24 21 19 20 21 20 18 16 13 13 17 22 23 21 19 19 20 21 21 22 20 18 17 18 17 15 12 8 6 6 7 6 3 4 8 9 10 12 13 15 18 18 18 19 17 15 16 20 21 21 20 20 19 18 17 17 18 18 18 18 16 16 17 18 20 22 23 24 25 25 25 25 25 25 25 26 26 26 25 25 25 22 20 20
23 23 19 15 15 16 16 18 19 19 19 19 19 20 19 19 19 22 24 24 24 22 20 19 20 19 16 12 9 7 7 7 7 5 4 5 9 11 13 16 17 17 16 17 19 16 12 14 18 20 19 18 17 16 15 14 14 16 17 17 16 16 16 17 18 20 22 23 24 25 26 26 26 26 25 25 25 25 25 25 23 23 22 21 19
21 22 21 18 17 18 18 18 19 19 19 18 19 22 22 22 23 25 26 27 26 25 23 22 22 22 19 16 14 11 9 8 9 9 8 8 10 12 14 16 15 13 14 17 16 11 9 12 16 16 16 15 14 13 12 11 13 15 15 15 15 15 17 18 19 21 23 24 25 26 27 26 26 27 26 25 25 24 24 24 23 21 21 21 20
19 19 22 22 21 22 22 22 23 24 23 22 23 24 25 26 28 28 29 29 29 27 26 25 25 24 22 19 16 13 11 10 12 11 10 11 12 12 13 14 13 10 10 12 12 8 7 11 14 14 14 13 12 10 11 12 14 15 14 14 14 14 16 18 20 21 23 25 25 25 25 25 25 25 26 25 25 24 24 23 22 21 20 21 21
21 22 24 25 26 26 27 27 28 29 28 27 27 28 28 29 30 30 31 32 31 30 28 27 26 25 22 19 16 15 14 13 13 11 9 10 10 9 9 11 12 11 8 8 8 8 7 8 12 13 13 12 12 13 14 16 15 14 13 13 14 15 17 18 19 21 23 24 24 24 23 23 23 24 24 24 23 23 24 23 22 20 19 20 21
25 25 27 28 29 31 32 32 32 31 30 30 31 32 32 31 30 30 30 31 31 29 26 25 24 23 21 19 18 17 15 14 14 13 12 11 10 9 9 9 9 7 5 4 5 7 7 7 9 12 13 13 14 16 17 17 15 14 14 14 15 16 17 18 19 21 22 23 23 23 22 22 22 22 22 22 22 23 24 24 22 21 19 18 19
26 26 27 27 29 33 35 34 34 33 33 32 32 33 33 32 31 29 28 29 28 26 24 22 22 21 20 18 16 14 13 11 10 9 9 9 8 7 7 6 4 2 4 5 6 9 9 9 11 13 15 16 17 18 18 16 15 15 15 16 17 18 18 19 20 21 22 22 23 23 23 22 22 22 23 24 25 26 25 24 24 24 23 21 20
25 27 29 30 30 33 35 35 34 34 33 31 30 30 30 31 30 28 27 27 25 24 23 23 22 20 19 17 15 13 12 10 9 8 7 7 7 6 5 4 5 7 8 8 9 11 11 11 14 16 18 19 19 19 19 17 16 16 16 16 17 18 18 18 19 19 20 20 21 21 21 22 23 24 25 26 27 26 26 25 25 25 25 24 24
24 26 30 32 32 33 34 35 35 35 34 32 30 28 26 28 28 26 25 25 25 24 23 23 22 21 20 19 17 16 14 12 11 11 10 9 8 8 8 8 8 9 9 9 11 12 14 18 20 21 21 21 21 21 20 18 17 16 16 16 16 16 16 16 17 18 18 18 19 19 20 22 23 24 24 24 25 25 25 25 25 24 24 24 25
27 28 30 32 34 35 36 36 35 35 34 34 33 28 25 26 26 24 23 24 24 23 23 23 22 22 21 20 18 17 16 14 13 13 12 12 11 10 12 12 13 13 14 15 18 20 22 24 24 23 23 23 22 21 19 17 16 16 15 15 15 15 16 16 17 17 17 18 19 20 20 21 22 22 22 23 23 23 23 23 22 22 23 23 23
28 28 29 31 32 35 36 36 35 34 33 34 33 29 25 24 23 22 23 22 21 21 22 23 22 21 21 20 18 18 17 15 15 15 14 14 14 14 15 16 17 19 20 21 23 25 25 25 23 22 22 22 21 19 17 16 16 16 15 14 14 15 15 16 16 16 16 18 19 19 20 20 21 21 22 22 21 21 21 21 20 21 21 22 22
26 25 26 28 29 32 34 33 32 32 31 31 31 31 29 26 23 22 22 22 22 22 22 22 20 20 20 20 19 18 18 17 17 17 16 16 15 17 17 17 18 20 20 20 23 25 25 24 22 21 21 20 19 17 16 15 15 15 15 15 14 14 14 14 14 14 15 16 17 18 18 19 19 19 20 20 20 20 20 20 20 20 20 20 20
26 24 24 25 27 28 29 29 30 31 31 30 30 31 32 31 28 25 24 24 24 23 23 22 21 20 20 20 20 20 20 20 20 19 18 17 16 17 18 17 18 18 17 19 23 24 23 22 21 19 19 18 16 15 14 14 15 14 14 14 13 12 12 12 12 13 14 15 16 16 16 16 17 17 18 18 18 18 18 19 19 19 19 19 19
25 24 24 24 25 25 26 27 29 30 30 31 30 30 31 31 29 27 26 25 24 23 23 22 21 20 20 20 20 20 20 20 20 20 18 17 17 17 17 17 17 16 15 18 22 22 20 20 19 18 17 16 15 14 14 14 13 13 13 12 12 12 12 11 12 13 15 15 15 16 15 15 15 16 16 16 17 17 17 17 17 17 17 17 18
23 23 23 24 24 24 25 26 27 28 29 29 29 29 30 30 30 28 26 24 23 23 22 21 20 20 21 20 19 19 19 18 18 18 18 17 17 17 17 17 16 15 15 17 19 19 18 18 18 16 15 15 13 13 12 12 11 11 11 12 12 12 12 12 14 15 16 15 15 15 15 14 14 15 15 15 15 15 15 15 15 16 17 16 16
22 21 22 23 23 23 24 25 27 27 27 28 28 29 29 29 28 27 25 24 23 23 23 22 21 20 19 19 17 16 15 15 15 15 15 16 15 15 16 17 17 17 17 17 17 18 18 17 16 14 13 12 11 10 10 10 10 11 12 12 13 13 13 14 15 15 14 14 14 14 14 14 14 14 13 14 14 15 16 15 15 15 16 15 15
21 21 22 22 23 23 24 25 25 25 25 26 27 27 27 26 26 26 25 24 24 24 25 25 23 21 19 17 15 14 13 13 13 13 14 13 13 13 16 18 19 19 19 18 18 18 17 16 15 13 12 12 11 11 12 12 12 13 13 13 13 13 13 14 14 14 14 15 15 16 16 16 15 14 13 13 14 14 15 15 15 15 16 15 14
19 20 20 20 21 22 21 21 21 22 23 24 24 24 25 25 25 24 23 23 24 25 25 24 23 22 21 18 16 15 15 15 15 15 15 14 13 14 18 20 20 20 19 18 18 17 16 15 14 13 13 13 14 14 14 14 14 13 12 12 12 13 13 14 14 15 16 17 17 17 17 16 15 14 13 13 14 14 14 15 15 15 15 14 14
19 19 19 19 20 20 19 18 18 19 20 21 23 24 24 23 22 22 23 23 24 25 24 23 23 22 21 19 17 15 15 15 16 17 18 17 17 19 20 20 20 20 20 18 17 17 17 16 16 16 16 16 16 15 15 14 14 13 12 12 13 13 13 14 15 15 16 17 16 16 16 15 14 13 12 12 14 14 14 14 15 15 15 15 15
21 21 21 22 22 22 22 21 20 20 20 20 21 23 23 22 22 23 24 24 24 24 24 23 22 20 19 17 14 12 14 17 19 20 20 20 20 20 20 20 20 20 19 18 18 18 18 18 17 16 16 16 15 15 14 14 13 13 12 12 12 13 13 14 15 16 16 16 15 15 15 14 13 12 11 12 14 14 13 14 14 15 15 16 16
22 23 23 23 24 24 23 23 23 22 22 22 23 24 24 24 24 25 25 25 25 24 23 23 21 18 16 15 13 13 17 21 22 21 21 21 20 20 20 20 20 20 19 18 17 16 16 16 15 15 15 15 14 14 13 13 12 12 12 12 12 13 14 15 16 16 16 15 15 15 14 13 12 11 11 13 14 13 13 14 14 14 15 16 16
22 22 22 23 23 23 23 23 23 22 23 24 26 26 26 26 26 27 27 26 26 26 25 23 21 19 17 16 15 16 20 22 22 21 21 22 21 21 21 20 19 18 17 17 16 15 15 15 14 14 14 14 13 12 12 12 12 12 12 13 13 14 14 14 15 15 15 15 14 14 13 12 12 12 12 13 13 13 13 14 14 14 15 16 16
20 21 20 20 20 21 22 22 22 23 24 25 26 27 27 27 27 27 27 28 28 27 26 25 23 20 18 17 16 17 19 21 21 21 22 21 20 20 20 19 18 17 16 15 14 13 13 13 13 13 13 13 12 12 12 12 13 13 13 13 14 14 14 14 14 14 14 14 14 13 12 12 11 11 13 14 14 13 14 15 15 16 16 17 17
19 19 18 17 17 18 19 20 22 23 25 26 26 27 27 27 27 27 27 27 27 27 27 25 23 21 20 18 16 17 19 20 21 21 21 20 19 18 17 16 15 14 14 13 12 11 10 11 11 12 12 12 11 11 11 12 12 12 12 13 13 14 14 14 14 13 14 14 14 13 11 11 11 12 13 14 14 14 15 15 16 16 17 17 17
18 18 17 16 16 17 18 20 22 24 26 26 26 26 26 26 27 27 27 26 26 26 26 24 22 21 20 17 16 17 18 18 18 19 18 18 17 16 15 14 13 12 12 11 10 9 9 9 11 11 12 12 12 11 12 12 12 12 12 13 13 14 14 14 14 12 12 13 14 13 12 12 12 12 14 15 15 14 15 16 16 17 17 17 17
16 16 16 16 17 19 21 23 24 25 26 26 25 25 26 26 26 26 26 26 25 25 24 22 21 20 18 17 16 16 15 15 15 16 15 15 15 15 14 13 12 11 11 10 9 8 9 10 11 11 12 12 12 12 12 12 13 13 13 13 13 13 13 12 12 11 10 10 12 12 12 12 13 13 14 15 15 15 15 16 16 17 18 17 17
13 14 15 17 19 21 23 24 25 25 26 26 26 25 25 25 25 25 25 25 24 23 22 21 19 19 18 17 16 15 14 14 14 14 13 13 13 12 12 12 11 11 11 10 9 9 9 10 10 10 11 11 11 11 12 12 13 13 13 13 13 12 12 11 11 10 9 9 10 11 11 11 13 14 14 15 15 15 15 16 16 17 18 17 17
12 13 15 18 21 23 23 24 25 25 25 25 25 25 25 25 24 24 24 23 22 21 20 19 19 18 18 18 17 16 15 15 15 14 13 13 12 12 11 12 12 12 12 12 11 10 10 10 9 9 9 10 10 10 11 11 12 12 12 12 12 12 12 12 12 12 9 8 9 10 11 11 12 13 14 15 15 15 15 16 16 17 18 17 17
13 15 17 19 21 23 23 24 24 25 25 25 25 25 24 24 24 23 22 21 20 20 19 19 18 18 18 17 16 16 15 15 15 14 14 14 13 13 12 12 13 13 13 13 12 12 11 11 10 9 9 9 10 10 11 11 12 12 13 13 14 14 14 13 13 13 10 7 7 9 10 10 11 13 14 15 15 15 15 15 16 16 17 17 17
14 16 17 18 19 20 21 22 23 24 24 25 25 24 24 23 23 22 21 20 19 18 18 17 16 16 15 15 15 14 14 14 14 14 14 13 13 12 12 12 12 11 12 12 12 12 11 10 9 8 8 8 8 10 10 11 11 12 12 13 14 15 16 15 15 15 12 7 6 9 10 9 10 13 14 14 15 16 15 14 15 15 15 15 16
16 16 16 16 17 18 19 20 21 23 24 24 24 24 23 22 22 21 20 19 18 17 15 14 13 13 13 13 14 14 13 13 12 12 12 12 11 10 9 9 10 10 10 10 10 11 10 9 7 6 6 6 7 8 9 10 9 9 10 11 12 15 16 17 16 16 13 9 7 8 9 9 10 12 12 13 14 16 16 15 15 15 15 15 15
17 17 16 15 16 18 20 21 22 23 24 24 23 23 22 21 21 20 19 17 16 15 14 13 13 13 13 13 12 12 11 10 9 9 9 8 8 7 6 6 7 8 9 9 8 8 7 6 5 5 5 5 5 6 7 8 8 7 8 9 10 11 14 16 16 16 14 10 8 8 9 9 10 11 11 12 13 15 15 15 15 15 15 15 15
Wind_Direction
210 211 213 214 217 220 223 224 224 225 228 227 228 230 232 234 236 238 242 245 245 246 252 256 255 254 254 258 262 260 252 247 248 254 260 262 263 264 262 260 265 268 269 270 273 274 275 279 286 292 298 298 296 299 303 305 309 308 307 305 301 302 301 287 267 283 299 309 318 325 333 335 335 343 346 344 343 342 341 340 331 328 335 340 336
210 211 212 213 215 218 222 223 223 225 227 229 231 232 234 236 236 237 241 245 246 249 255 256 252 248 248 250 251 247 243 243 244 243 247 250 253 259 263 259 259 262 262 265 270 272 273 275 281 290 296 293 290 294 300 303 307 308 308 308 309 311 308 296 284 281 294 306 316 323 331 334 334 340 347 347 347 345 344 343 338 334 333 334 332
212 212 212 213 215 216 219 222 223 224 226 228 231 233 236 237 237 237 240 243 244 247 250 248 245 244 244 245 245 244 245 248 249 247 245 246 246 252 262 262 259 260 261 267 274 272 270 272 277 287 289 286 289 294 298 303 306 305 305 307 314 320 318 305 293 283 289 303 312 318 325 330 331 337 343 345 346 345 343 340 337 335 334 333 332
212 213 213 214 215 215 217 220 221 223 224 227 230 233 236 238 238 238 239 242 243 243 244 245 247 248 248 248 246 244 246 248 251 251 248 247 246 246 257 263 260 259 261 268 273 271 268 269 271 276 276 276 286 293 298 309 313 310 309 313 317 320 320 315 305 295 292 297 304 311 319 324 327 332 337 340 341 340 339 339 338 335 334 333 334
211 212 213 213 214 214 216 217 220 222 223 226 229 232 235 238 239 238 239 241 242 242 243 247 250 251 253 256 253 248 249 251 254 256 253 249 249 250 256 260 257 256 261 265 267 265 263 263 262 263 265 269 279 292 302 315 318 313 309 312 314 315 316 317 313 307 301 298 301 308 314 317 320 324 331 336 336 335 334 335 336 337 336 333 333
210 211 212 212 213 214 215 216 218 221 223 225 229 231 234 237 240 240 241 244 244 242 245 250 253 253 255 260 260 255 254 252 253 257 257 256 255 254 255 255 248 247 254 259 260 257 254 256 258 256 259 274 288 292 290 297 304 302 298 303 308 311 313 312 310 309 307 304 303 306 310 314 317 319 325 333 334 333 334 331 330 332 333 329 328
209 210 211 211 213 215 215 217 218 220 223 225 228 231 233 236 239 242 244 246 244 241 242 247 251 254 256 257 258 256 254 253 253 254 255 258 257 253 251 250 246 243 248 254 253 251 249 249 249 248 261 282 287 282 273 271 283 292 299 308 313 315 315 314 313 311 310 310 309 308 311 314 316 317 323 329 330 333 338 333 327 327 329 324 321
208 209 211 211 213 216 216 218 218 220 223 226 229 232 234 235 237 240 243 245 242 239 240 245 249 253 254 252 250 251 251 253 253 252 253 256 252 246 245 247 245 243 245 248 246 241 241 245 250 259 274 284 282 274 265 264 275 293 310 321 328 329 329 328 325 322 321 320 317 316 317 317 319 322 326 331 332 333 337 333 323 323 324 321 319
210 209 210 211 213 216 217 217 218 221 223 225 228 232 235 236 236 237 240 241 240 239 242 247 250 250 249 246 244 246 248 250 250 251 253 251 243 237 240 243 242 239 239 238 236 236 243 249 254 256 260 266 264 258 259 277 304 328 338 340 340 338 336 333 331 329 328 324 321 321 320 317 320 326 328 331 332 330 331 331 325 323 324 321 319
211 210 211 213 215 216 216 217 218 220 223 225 227 231 235 236 236 235 236 238 241 243 244 245 245 245 244 241 240 242 246 249 250 249 249 245 237 233 237 240 237 234 233 229 229 238 242 232 218 202 195 203 217 226 294 348 351 349 346 343 337 332 332 333 335 336 331 325 323 324 322 320 329 337 334 334 337 334 333 332 328 326 325 321 319
211 212 213 214 215 215 215 216 218 220 222 224 227 230 233 235 235 234 234 236 241 244 244 240 238 237 237 237 239 242 246 249 248 247 246 242 236 234 237 236 232 229 229 227 228 227 217 202 193 189 189 190 185 46 8 355 348 342 338 336 330 332 342 349 352 354 348 343 342 342 342 341 344 345 339 336 337 335 331 330 326 324 321 317 314
211 212 214 215 215 215 215 216 217 219 221 224 226 229 233 235 235 234 234 237 241 244 240 234 230 230 232 235 239 241 245 247 246 244 245 241 236 234 234 233 233 231 229 229 224 210 198 192 189 187 185 180 100 3 356 347 340 339 341 342 344 356 9 10 7 9 6 1 358 357 355 347 340 338 336 334 331 327 326 325 322 319 317 313 308
213 211 212 214 214 214 215 216 218 219 221 223 226 230 232 233 233 234 236 238 240 237 230 225 224 227 231 234 236 236 238 240 240 241 241 237 233 233 233 234 236 235 233 230 217 201 193 190 186 182 183 183 342 346 346 345 345 352 2 19 25 26 24 15 11 14 12 8 6 3 359 349 339 336 336 332 326 323 324 324 320 315 312 309 308
217 214 210 212 214 214 215 217 219 221 221 222 225 228 230 232 233 236 236 232 227 221 217 216 218 221 223 225 226 227 229 231 234 236 235 233 232 233 234 234 235 236 235 224 207 197 190 186 181 175 167 102 4 1 4 11 26 36 47 57 53 46 42 38 36 34 29 24 17 10 4 355 343 337 334 330 325 322 321 319 317 313 310 309 310
218 218 212 210 212 213 214 216 219 220 220 221 223 225 227 228 227 225 218 209 204 200 201 204 204 204 209 213 216 219 223 228 230 232 232 233 233 234 236 238 237 233 224 206 189 177 166 165 167 155 122 57 35 44 44 50 66 76 77 73 66 61 58 52 48 43 37 32 26 19 15 7 357 348 338 324 315 314 316 319 324 326 325 326 326
215 216 214 213 212 213 214 215 216 217 216 216 216 214 211 206 199 192 186 182 182 181 183 185 184 186 194 201 206 212 220 228 231 232 234 236 236 237 237 234 221 204 194 185 172 159 151 145 132 114 97 78 64 63 71 84 90 89 85 79 75 72 66 59 55 53 50 47 45 41 38 34 29 24 16 357 334 323 325 336 346 349 344 342 341
215 214 215 216 214 212 213 213 212 211 209 207 200 189 180 174 173 175 173 164 161 167 171 166 166 177 180 178 184 193 210 231 232 231 233 234 234 232 226 212 192 176 171 164 156 150 142 125 112 110 101 89 84 87 95 98 94 88 82 79 77 74 69 68 67 67 65 63 60 55 50 47 43 41 40 36 29 25 20 11 9 7 1 356 346
213 211 211 211 209 208 212 219 214 204 199 193 180 166 160 160 165 170 169 159 154 158 159 150 147 154 151 141 145 154 145 225 237 229 225 222 221 217 208 196 183 169 152 138 129 126 120 111 108 108 102 98 99 101 102 97 90 85 80 76 74 68 66 67 67 68 69 67 63 58 53 50 48 46 46 44 42 43 41 34 29 29 26 16 4
207 207 207 206 205 203 200 208 216 206 188 169 154 146 142 144 153 161 160 155 149 147 148 140 130 124 119 114 117 131 126 95 284 223 209 203 196 188 182 179 171 155 139 127 118 112 110 109 107 104 103 105 105 101 97 91 87 83 78 74 72 68 65 65 62 62 63 61 58 55 52 51 50 48 47 45 43 42 41 37 35 37 37 29 23
204 202 202 202 202 199 192 191 195 192 175 152 138 136 140 142 146 147 143 141 138 135 135 130 120 110 108 112 114 113 108 94 72 76 169 174 164 152 142 138 133 123 116 111 104 96 95 102 106 108 109 109 105 98 91 87 84 80 74 74 76 75 74 73 67 64 62 59 56 54 52 51 50 48 47 45 44 42 39 36 34 36 39 38 37
202 195 194 191 189 190 192 191 182 172 169 161 145 147 160 162 153 142 135 132 131 128 126 123 116 109 108 117 125 118 107 103 92 77 95 134 143 136 116 102 102 104 100 94 93 95 102 108 110 112 112 108 101 96 92 89 86 80 74 76 82 84 83 79 73 68 64 59 56 52 49 47 46 45 43 43 45 44 40 37 34 33 36 38 37
197 189 185 178 168 166 175 182 173 162 166 166 151 146 154 156 149 140 133 128 124 121 120 116 111 105 100 99 100 97 96 104 102 91 85 97 117 129 119 102 95 97 97 95 98 110 123 117 113 114 113 106 99 97 96 93 90 85 81 85 91 90 86 80 73 68 62 56 52 49 45 42 40 38 38 38 41 42 41 40 38 36 36 39 40
184 174 170 165 158 154 155 159 157 151 153 156 149 139 138 140 137 133 129 124 118 115 115 113 108 104 98 94 90 87 91 102 103 96 93 94 95 101 109 109 104 100 98 102 112 126 124 115 116 116 110 105 101 100 99 98 97 94 91 93 95 91 85 79 72 65 58 52 49 47 44 41 38 36 34 34 36 39 39 41 44 44 42 40 43
160 151 147 147 146 144 142 141 141 141 143 145 141 134 130 129 128 126 124 120 115 113 112 111 108 104 102 99 96 92 94 98 97 91 94 104 99 90 100 117 120 116 102 92 106 121 120 117 120 114 104 103 106 106 105 104 102 97 94 93 92 88 81 74 67 60 54 50 49 48 45 43 41 38 35 33 33 35 36 37 42 49 49 44 43
142 135 132 133 133 131 129 128 130 131 132 133 131 128 127 125 124 122 121 117 114 113 111 109 108 108 108 105 100 97 95 94 91 88 89 97 101 98 103 111 112 113 111 104 124 143 150 140 123 109 102 106 112 112 110 107 101 96 94 91 86 80 74 67 60 55 53 53 51 49 48 47 46 43 38 34 32 31 30 30 33 37 39 37 39
125 122 120 120 121 122 120 119 121 122 122 123 124 125 127 126 124 123 121 117 114 114 114 114 114 112 111 107 104 103 103 99 97 97 95 97 100 104 112 115 122 176 212 212 184 171 167 150 124 113 113 119 122 118 113 108 103 99 95 88 81 73 65 60 56 55 56 56 54 53 52 51 49 45 40 37 36 34 30 27 26 26 25 22 24
115 116 115 114 115 116 116 115 115 115 116 116 117 120 124 125 123 122 120 118 116 118 120 122 120 116 113 111 110 110 109 110 110 112 114 114 116 130 154 178 199 209 216 211 190 176 168 147 129 125 127 127 124 120 115 110 104 97 88 80 73 66 61 58 57 59 60 59 58 57 54 50 48 45 41 39 38 35 31 28 27 26 24 21 22
103 106 110 112 111 111 112 113 113 113 114 114 114 115 120 122 122 123 124 124 123 126 127 124 122 120 118 116 114 109 105 106 108 110 111 108 110 127 147 160 172 177 177 171 161 154 145 136 130 130 130 125 120 117 114 107 98 89 80 74 70 67 65 63 63 63 62 61 60 58 54 50 48 46 43 39 35 31 28 27 27 27 26 26 26
96 97 102 106 109 111 112 113 114 116 118 118 118 120 125 127 127 128 129 125 122 122 124 123 122 121 118 115 111 106 100 98 98 99 97 95 99 113 122 127 132 133 133 135 136 134 131 129 128 127 125 121 117 113 108 102 95 87 80 76 73 71 69 66 65 64 60 57 56 54 51 49 46 42 39 36 33 30 27 26 26 24 23 26 26
96 97 102 106 110 114 115 116 119 120 120 119 120 121 124 126 126 124 121 118 114 113 116 118 120 119 115 109 104 100 97 94 94 94 91 91 96 105 110 115 119 120 123 129 130 127 124 121 121 121 120 117 114 111 107 103 97 92 87 82 77 74 71 67 65 62 57 54 54 50 47 45 42 37 34 31 28 26 24 23 22 20 20 22 21
98 98 103 108 113 116 117 119 121 119 117 117 117 115 112 110 108 108 109 111 111 111 112 111 110 108 105 102 100 98 97 95 94 96 98 97 97 100 103 107 112 117 122 125 122 119 118 117 117 118 118 115 113 111 107 103 99 97 93 86 80 78 75 71 66 60 55 52 51 47 44 42 38 33 30 26 21 19 17 16 16 15 16 17 15
103 103 106 110 114 116 118 119 120 118 116 115 114 111 107 103 100 101 106 108 108 108 106 103 101 98 96 97 98 98 96 94 91 93 99 104 104 103 102 103 106 112 117 115 113 114 117 118 118 118 116 113 113 111 106 103 100 97 92 87 84 82 78 73 67 60 55 51 48 46 43 39 34 30 26 21 17 14 14 13 11 10 10 10 11
111 112 114 115 116 118 120 120 121 121 120 118 115 113 111 108 106 106 108 107 105 102 99 96 94 93 92 93 94 94 93 90 88 88 95 105 109 107 104 102 102 103 103 105 110 115 118 119 119 119 116 114 113 110 106 102 100 98 94 90 88 85 80 74 68 64 60 55 52 48 43 35 29 24 19 16 14 12 11 11 9 9 9 9 12
117 119 121 122 123 123 123 124 124 124 123 121 119 117 116 116 116 115 113 110 106 99 93 89 89 91 91 90 90 91 90 89 88 87 92 102 109 109 106 105 104 102 101 107 114 118 119 120 120 118 117 115 113 112 110 106 105 104 100 95 90 85 78 69 64 61 57 52 48 43 36 28 23 18 13 11 9 9 11 12 10 11 13 13 13
114 117 120 123 124 125 126 127 127 125 124 122 121 121 120 120 119 118 116 114 107 97 90 87 87 89 91 89 88 89 89 89 89 86 89 99 107 111 110 108 106 105 107 112 117 118 118 119 118 118 118 117 114 114 114 111 106 101 96 91 84 77 69 61 56 53 48 43 40 35 27 21 17 13 11 9 10 12 16 17 15 15 15 14 13
116 117 119 121 123 125 127 128 126 125 125 124 123 123 122 121 121 120 117 112 104 97 94 94 93 91 89 88 87 87 88 88 88 87 91 99 106 110 110 108 105 104 105 109 114 116 116 115 115 116 116 113 109 106 104 102 98 94 88 83 76 67 60 54 48 43 37 34 30 24 19 15 12 10 9 10 12 14 17 17 17 16 15 13 14
120 122 124 125 127 128 128 128 127 126 126 126 126 126 126 125 124 120 113 107 103 103 103 103 101 97 93 90 90 91 91 92 92 91 92 95 99 103 108 109 107 105 103 104 110 112 110 108 108 107 104 101 99 98 96 95 93 89 84 77 69 61 55 47 39 33 27 22 18 14 11 9 9 10 12 13 13 15 18 19 18 17 15 14 15
119 122 126 129 132 133 132 133 135 135 134 133 133 133 131 128 123 117 110 107 108 109 108 107 105 102 98 97 98 99 99 96 93 90 89 92 96 100 104 106 106 105 103 103 106 107 104 99 98 97 96 96 96 95 94 92 88 83 76 69 61 54 46 38 30 25 20 16 14 11 8 8 10 13 17 20 18 17 19 19 18 17 16 15 15
118 119 123 125 125 126 127 130 133 135 135 135 137 138 135 129 122 117 113 111 110 109 108 106 105 104 105 105 106 105 98 92 88 88 89 92 95 100 103 104 104 105 105 105 106 105 102 100 98 97 97 96 93 90 87 82 77 71 63 56 48 40 33 27 22 20 19 17 15 12 9 12 17 21 25 26 23 20 20 20 19 17 15 13 13
119 119 121 122 121 120 121 123 125 127 127 128 132 135 134 129 124 119 116 113 109 107 106 105 104 105 108 108 106 103 99 94 92 92 93 93 94 97 99 100 100 101 102 103 103 103 102 102 101 99 96 93 89 85 80 73 68 62 53 46 40 34 29 26 23 22 21 19 16 14 12 16 22 27 29 28 24 21 21 21 18 17 15 13 12
120 119 120 120 120 119 119 121 124 127 128 129 130 130 128 126 123 120 116 113 110 106 104 103 103 104 106 105 104 103 102 100 98 96 95 94 94 95 95 96 96 97 98 98 99 100 101 100 98 96 93 88 83 79 73 65 59 53 47 43 39 35 31 29 27 27 25 22 19 17 17 21 26 28 29 27 24 22 23 22 19 18 16 14 13
122 121 120 120 122 122 119 120 125 130 130 130 129 129 128 126 123 120 116 113 111 109 107 106 105 106 106 106 105 104 104 103 102 101 98 97 96 94 93 93 92 92 92 92 94 96 97 96 93 89 84 79 73 67 61 54 50 47 44 41 38 35 33 33 32 31 29 25 23 23 25 27 30 31 31 28 24 23 24 22 20 19 17 14 13
124 123 122 122 125 125 122 124 129 132 132 131 129 129 128 126 123 121 118 115 114 114 113 112 112 111 110 108 106 104 104 105 104 102 100 99 96 93 91 90 89 90 91 91 92 93 94 93 90 84 78 73 67 60 56 52 48 45 43 40 37 36 35 33 31 30 27 25 25 28 31 31 30 30 31 28 24 23 23 21 19 17 15 12 11
126 125 125 125 126 126 127 129 131 131 132 132 131 130 130 128 125 124 122 119 119 119 118 118 118 116 113 109 104 102 103 104 103 101 99 97 94 91 90 89 89 89 89 88 88 88 88 89 89 85 79 73 67 62 60 57 53 49 46 43 41 41 39 34 30 25 21 20 24 29 34 34 32 31 30 27 23 21 21 19 17 15 13 10 10
130 129 129 129 129 128 128 129 130 132 132 132 130 130 131 130 128 127 126 125 124 123 122 122 119 116 112 107 102 101 102 103 102 99 97 94 92 90 88 85 83 82 82 83 85 85 85 87 87 82 74 68 63 61 63 61 56 52 49 47 45 43 38 33 27 21 15 18 25 30 34 35 34 33 31 27 23 22 20 19 18 16 14 12 10
140 140 139 137 135 133 130 130 132 134 135 134 133 132 132 133 132 131 130 129 128 127 125 122 118 115 111 108 106 107 110 110 106 102 97 93 91 87 82 79 80 81 83 85 87 85 85 84 78 69 64 62 62 67 70 66 61 57 54 50 47 43 36 29 23 18 16 21 26 28 33 36 34 32 29 25 23 23 22 22 22 20 19 17 16
146 145 146 145 143 139 136 134 136 137 137 138 138 137 136 136 135 134 133 132 130 128 126 123 120 118 116 114 114 115 115 113 107 101 96 93 90 89 87 86 86 86 86 86 84 82 80 77 70 67 70 72 74 79 80 71 64 60 55 48 43 38 31 26 22 17 16 21 25 27 31 34 32 28 26 23 22 23 24 24 24 23 23 23 22
147 143 144 146 147 144 140 139 139 140 141 141 142 140 140 139 138 137 137 135 132 130 129 126 124 122 121 119 119 118 116 112 106 101 100 101 101 101 100 96 93 92 89 86 81 78 77 76 74 77 82 82 80 83 81 71 64 61 55 49 43 36 28 24 21 18 17 22 28 27 28 29 27 26 24 22 20 21 22 23 22 21 21 22 23
154 149 147 147 147 147 145 143 143 144 145 145 144 144 144 143 141 140 139 138 136 134 130 127 125 124 123 124 125 124 122 119 115 112 112 112 111 107 102 96 92 90 86 81 77 75 75 76 77 78 78 77 76 76 72 66 64 62 56 49 44 38 30 25 21 19 20 29 36 31 25 21 18 19 20 21 21 20 19 19 18 18 17 17 17
161 159 157 156 154 152 151 149 148 148 149 149 148 148 147 146 145 144 142 140 137 135 130 127 129 131 132 133 135 134 131 128 124 119 116 115 111 105 97 90 85 82 79 78 79 78 77 79 83 82 78 73 70 68 65 65 66 62 53 45 40 36 32 28 24 23 26 33 37 29 19 12 10 14 18 23 24 21 17 15 17 18 17 14 12
163 165 167 167 163 160 158 156 154 154 154 153 152 151 150 149 148 147 146 143 140 139 138 139 141 142 140 138 137 136 134 130 125 120 120 122 119 113 106 99 94 89 87 89 92 89 84 85 95 98 90 79 70 64 61 62 62 56 44 34 29 29 30 29 27 27 27 26 22 16 8 4 6 13 17 21 21 18 15 14 16 17 15 11 9